Location: Piolenc
(44.1794°N, 4.7641°E)
Time: 03:05:12
(UTC+00:00)

Cosmos 1328 - Pass Details

Date: 27 January 2021
Orbit: 528 x 555 km, 82.5° (Epoch: 27 February)

Event Time Altitude Azimuth Distance (km) Brightness Sun altitude
Exits shadow 04:46:59 34° 20° (NNE) 897 5.0 -24.5°
Maximum altitude 04:48:23 53° 79° (E) 655 4.4 -24.3°
Drops below altitude 10° 04:52:11 10° 157° (SSE) 1,768 6.7 -23.6°
Sets 04:54:21 0° 162° (SSE) 2,653 7.6 -23.2°
